User: anonymous   Login
Location: Unspecified
(0.0000°N, 0.0000°E)
Time: 16:04:36
(UTC+00:00)
Language:

ISS - Orbit

View from above orbital plane
View from above orbital plane
View from above satellite
View from above satellite

Ground track
Ground track

The orbit data is extracted from the following two-line orbital elements,

1 25544U 98067A   15031.43447399  .00014344  00000-0  22294-3 0  8024
2 25544 051.6471 046.8940 0005857 312.2306 197.4100 15.54189980926750
Epoch (UTC): 31 January 2015 10:25:38
Eccentricity: 0.0005857
inclination: 51.6471°
perigee height: 400 km
apogee height: 408 km
right ascension of ascending node: 46.8940°
argument of perigee: 312.2306°
revolutions per day: 15.54189980
mean anomaly at epoch: 197.4100°
orbit number at epoch: 92675

The dashed part of the orbit path shows where the satellite is in the earth's shadow,  

DLR